This demonstration page uses our WeatherBlox Daily Observations layout. Learn more.

Left ArrowRight Arrow

38.20091, -84.87328

Hourly Observations for August 27, 2022

Temp ( °F °C ) Dew Point ( °F °C ) Humidity (%) Winds ( mph kmh ) Pressure ( in mb ) Visibility ( mi km ) Precip ( " mm )
12:53 am 00:53 Clear 72 22.2 69 20.6 91 91 ENE 3 6 30.02 1017 10 16 0.00 0.00
1:53 am 01:53 Clear with Mist and Fog 69 20.6 67 19.4 93 93 Calm 30.02 1017 6 10 0.00 0.00
2:53 am 02:53 Clear 69 20.6 67 19.4 93 93 Calm 30.01 1016 7 11 0.00 0.00
3:53 am 03:53 Clear with Mist and Fog 67 19.4 66 18.9 97 97 Calm 30.01 1016 2 3 0.00 0.00
4:05 am 04:05 Clear with Mist and Fog 68 20 67 19.4 96 96 Calm 30.01 1016 6 10 0.00 0.00
4:53 am 04:53 Clear with Mist and Fog 68 20 67 19.4 96 96 Calm 30.00 1016 5 8 0.00 0.00
5:53 am 05:53 Clear 69 20.6 67 19.4 93 93 Calm 30.01 1016 7 11 0.00 0.00
6:53 am 06:53 Clear 68 20 66 18.9 93 93 Calm 30.02 1017 9 14 0.00 0.00
7:53 am 07:53 Sunny 69 20.6 67 19.4 93 93 Calm 30.04 1017 8 13 0.00 0.00
8:53 am 08:53 Sunny 72 22.2 68 20 87 87 NE 3 6 30.05 1018 10 16 0.00 0.00
9:53 am 09:53 Sunny 75 23.9 68 20 79 79 E 3 6 30.06 1018 10 16 0.00 0.00
10:53 am 10:53 Sunny 80 26.7 70 21.1 71 71 ENE 5 7 30.05 1018 10 16 0.00 0.00
11:53 am 11:53 Mostly Sunny 83 28.3 70 21.1 65 65 E 3 6 30.04 1017 10 16 0.00 0.00
12:53 pm 12:53 Mostly Cloudy 82 27.8 69 20.6 65 65 ENE 6 9 30.02 1017 10 16 0.00 0.00
1:53 pm 13:53 Mostly Cloudy 84 28.9 67 19.4 57 57 E 6 9 30.01 1016 10 16 0.00 0.00
2:53 pm 14:53 Sunny 85 29.4 69 20.6 59 59 SE 7 11 30.00 1016 10 16 0.00 0.00
3:53 pm 15:53 Mostly Cloudy 86 30 68 20 55 55 VRB 3 6 29.98 1015 10 16 0.00 0.00
4:53 pm 16:53 Mostly Cloudy 85 29.4 68 20 57 57 E 7 11 29.96 1015 10 16 0.00 0.00
5:53 pm 17:53 Partly Cloudy 87 30.6 68 20 53 53 ENE 8 13 29.96 1014 10 16 0.00 0.00
6:53 pm 18:53 Partly Cloudy 86 30 67 19.4 53 53 ENE 6 9 29.95 1014 10 16 0.00 0.00
7:53 pm 19:53 Mostly Sunny 82 27.8 67 19.4 60 60 ENE 6 9 29.96 1014 10 16 0.00 0.00
8:53 pm 20:53 Clear 77 25 67 19.4 71 71 E 5 7 29.96 1015 10 16 0.00 0.00
9:53 pm 21:53 Clear 76 24.4 67 19.4 74 74 E 3 6 29.98 1015 10 16 0.00 0.00
10:53 pm 22:53 Clear 76 24.4 67 19.4 74 74 E 8 13 29.98 1015 10 16 0.00 0.00
11:53 pm 23:53 Clear 75 23.9 67 19.4 76 76 ESE 7 11 29.99 1016 10 16 0.00 0.00

Powered by AerisWeather